• In Hungary
  • List of Countries
  • For 7 days
  • Water Temperature
  • Satellite Maps
  • Weather Map
  • News
  • Weather Widgets
  • user-avatar
    Login

    Hourly Weather Prome

    Today, 19 October, Friday

    Time Temperature Precipitation Wind Pressure Humidity
    00:00 +24°C° 0 mm 1 mps 753 mmHg 85%
    01:00 +23°C° 0 mm 1 mps 753 mmHg 86%
    02:00 +23°C° 0 mm 1 mps 752 mmHg 86%
    03:00 +23°C° 0 mm 1 mps 752 mmHg 87%
    04:00 +23°C° 0 mm 1 mps 752 mmHg 87%
    05:00 +23°C° 0 mm 1 mps 753 mmHg 87%
    06:00 +23°C° 0 mm 1 mps 753 mmHg 88%
    07:00 +25°C° 0 mm 1 mps 753 mmHg 82%
    08:00 +27°C° 0 mm 1 mps 753 mmHg 76%
    09:00 +29°C° 0 mm 1 mps 753 mmHg 71%
    10:00 +30°C° 0 mm 2 mps 753 mmHg 67%
    11:00 +31°C° 0 mm 2 mps 753 mmHg 64%
    12:00 +34°C° 0 mm 2 mps 752 mmHg 61%
    13:00 +32°C° 0 mm 2 mps 752 mmHg 62%
    14:00 +32°C° 0 mm 2 mps 751 mmHg 63%
    15:00 +32°C° 0 mm 2 mps 751 mmHg 65%
    16:00 +30°C° 0 mm 2 mps 751 mmHg 70%
    17:00 +29°C° 0 mm 1 mps 752 mmHg 75%
    18:00 +27°C° 0 mm 1 mps 752 mmHg 81%
    19:00 +26°C° 0 mm 1 mps 752 mmHg 81%
    20:00 +26°C° 0 mm 1 mps 753 mmHg 81%
    21:00 +25°C° 0 mm 1 mps 753 mmHg 81%
    22:00 +25°C° 0 mm 1 mps 754 mmHg 82%
    23:00 +25°C° 0 mm 1 mps 754 mmHg 83%

    Tomorrow, 20 October, Saturday

    Time Temperature Precipitation Wind Pressure Humidity
    00:00 +24°C° 0 mm 1 mps 754 mmHg 84%
    01:00 +24°C° 0 mm 1 mps 753 mmHg 84%
    02:00 +24°C° 0 mm 1 mps 753 mmHg 84%
    03:00 +24°C° 0 mm 1 mps 753 mmHg 84%
    04:00 +24°C° 0 mm 1 mps 753 mmHg 84%
    05:00 +24°C° 0 mm 1 mps 753 mmHg 84%
    06:00 +23°C° 0 mm 1 mps 753 mmHg 85%
    07:00 +25°C° 0 mm 2 mps 754 mmHg 79%
    08:00 +27°C° 0 mm 2 mps 754 mmHg 74%
    09:00 +29°C° 0 mm 2 mps 755 mmHg 68%
    10:00 +30°C° 0 mm 2 mps 754 mmHg 66%
    11:00 +31°C° 0 mm 2 mps 754 mmHg 64%
    12:00 +34°C° 0 mm 2 mps 754 mmHg 62%
    13:00 +32°C° 0 mm 2 mps 753 mmHg 64%
    14:00 +32°C° 0 mm 2 mps 752 mmHg 67%
    15:00 +32°C° 0 mm 2 mps 752 mmHg 70%
    16:00 +31°C° 0 mm 1 mps 752 mmHg 73%
    17:00 +29°C° 0 mm 1 mps 753 mmHg 76%
    18:00 +26°C° 0 mm 0 mps 753 mmHg 79%
    19:00 +26°C° 0 mm 0 mps 753 mmHg 79%
    20:00 +25°C° 0 mm 0 mps 754 mmHg 79%
    21:00 +27°C° 0 mm 1 mps 754 mmHg 79%
    22:00 +27°C° 0 mm 1 mps 754 mmHg 79%
    23:00 +27°C° 0 mm 1 mps 754 mmHg 80%

    Day after tomorrow, 21 October, Sunday

    Time Temperature Precipitation Wind Pressure Humidity
    00:00 +27°C° 0 mm 1 mps 754 mmHg 80%
    01:00 +27°C° 0 mm 1 mps 753 mmHg 80%
    02:00 +26°C° 0 mm 1 mps 753 mmHg 81%
    03:00 +26°C° 0 mm 1 mps 753 mmHg 81%
    04:00 +26°C° 0.1 mm 1 mps 753 mmHg 82%
    05:00 +26°C° 0.1 mm 1 mps 753 mmHg 84%
    06:00 +26°C° 0.1 mm 1 mps 754 mmHg 85%
    07:00 +27°C° 0.1 mm 1 mps 754 mmHg 80%
    08:00 +29°C° 0.1 mm 1 mps 755 mmHg 76%
    09:00 +31°C° 0.1 mm 2 mps 755 mmHg 71%
    10:00 +32°C° 0.1 mm 1 mps 754 mmHg 69%
    11:00 +32°C° 0.1 mm 1 mps 754 mmHg 66%
    12:00 +33°C° 0.1 mm 1 mps 753 mmHg 63%
    13:00 +33°C° 0.1 mm 1 mps 752 mmHg 64%
    14:00 +33°C° 0.1 mm 1 mps 752 mmHg 66%
    15:00 +33°C° 0.1 mm 1 mps 751 mmHg 67%
    16:00 +31°C° 0.1 mm 1 mps 751 mmHg 71%
    17:00 +28°C° 0.1 mm 0 mps 752 mmHg 74%
    18:00 +27°C° 0.1 mm 0 mps 752 mmHg 78%
    19:00 +26°C° 0.1 mm 0 mps 753 mmHg 79%
    20:00 +28°C° 0.1 mm 1 mps 753 mmHg 79%
    21:00 +28°C° 0.1 mm 1 mps 754 mmHg 80%
    22:00 +27°C° 0.8 mm 1 mps 753 mmHg 81%
    23:00 +27°C° 0.8 mm 1 mps 753 mmHg 83%

    22 October, Monday

    Time Temperature Precipitation Wind Pressure Humidity
    00:00 +27°C° 0.8 mm 1 mps 753 mmHg 84%
    01:00 +27°C° 0.2 mm 1 mps 752 mmHg 84%
    02:00 +27°C° 0.2 mm 1 mps 752 mmHg 85%
    03:00 +26°C° 0.2 mm 1 mps 752 mmHg 85%
    04:00 +26°C° 0.1 mm 1 mps 752 mmHg 86%
    05:00 +26°C° 0.1 mm 1 mps 752 mmHg 87%
    06:00 +26°C° 0.1 mm 1 mps 753 mmHg 88%
    07:00 +27°C° 0.1 mm 1 mps 753 mmHg 85%
    08:00 +28°C° 0.1 mm 2 mps 753 mmHg 82%
    09:00 +30°C° 0.1 mm 2 mps 754 mmHg 80%
    10:00 +30°C° 0.8 mm 2 mps 753 mmHg 79%
    11:00 +30°C° 0.8 mm 2 mps 752 mmHg 78%
    12:00 +31°C° 0.8 mm 2 mps 752 mmHg 77%
    13:00 +31°C° 0.6 mm 2 mps 751 mmHg 77%
    14:00 +31°C° 0.6 mm 2 mps 751 mmHg 78%
    15:00 +31°C° 0.6 mm 2 mps 750 mmHg 78%
    16:00 +29°C° 0.4 mm 1 mps 750 mmHg 80%
    17:00 +28°C° 0.4 mm 1 mps 751 mmHg 83%
    18:00 +25°C° 0.4 mm 0 mps 751 mmHg 85%
    19:00 +25°C° 0.4 mm 0 mps 752 mmHg 85%
    20:00 +25°C° 0.4 mm 0 mps 752 mmHg 85%
    21:00 +24°C° 0.4 mm 0 mps 753 mmHg 85%
    22:00 +26°C° 0.2 mm 1 mps 752 mmHg 85%
    23:00 +26°C° 0.2 mm 1 mps 752 mmHg 86%

    23 October, Tuesday

    Time Temperature Precipitation Wind Pressure Humidity
    00:00 +26°C° 0.2 mm 1 mps 752 mmHg 86%
    01:00 +26°C° 0 mm 1 mps 751 mmHg 86%
    02:00 +25°C° 0 mm 1 mps 751 mmHg 87%
    03:00 +25°C° 0 mm 2 mps 750 mmHg 87%
    04:00 +25°C° 0.2 mm 2 mps 751 mmHg 88%
    05:00 +25°C° 0.2 mm 2 mps 751 mmHg 89%
    06:00 +25°C° 0.2 mm 2 mps 751 mmHg 90%
    07:00 +26°C° 0.2 mm 1 mps 752 mmHg 86%
    08:00 +27°C° 0.2 mm 1 mps 752 mmHg 83%
    09:00 +29°C° 0.2 mm 1 mps 753 mmHg 79%
    10:00 +29°C° 1 mm 1 mps 752 mmHg 77%
    11:00 +30°C° 1 mm 1 mps 752 mmHg 76%
    12:00 +31°C° 1 mm 1 mps 751 mmHg 74%
    13:00 +31°C° 1 mm 1 mps 751 mmHg 75%
    14:00 +31°C° 1 mm 1 mps 751 mmHg 75%
    15:00 +30°C° 1 mm 1 mps 751 mmHg 76%
    16:00 +29°C° 0.9 mm 1 mps 751 mmHg 81%
    17:00 +28°C° 0.9 mm 1 mps 752 mmHg 86%
    18:00 +26°C° 0.9 mm 1 mps 752 mmHg 91%
    19:00 +26°C° 0 mm 1 mps 753 mmHg 92%
    20:00 +26°C° 0 mm 1 mps 753 mmHg 93%
    21:00 +26°C° 0 mm 1 mps 754 mmHg 94%
    22:00 +25°C° 0 mm 1 mps 754 mmHg 94%
    23:00 +25°C° 0 mm 1 mps 753 mmHg 95%

    24 October, Wednesday

    Time Temperature Precipitation Wind Pressure Humidity
    00:00 +25°C° 0 mm 1 mps 753 mmHg 96%
    01:00 +25°C° 0 mm 1 mps 753 mmHg 96%
    02:00 +25°C° 0 mm 1 mps 752 mmHg 97%
    03:00 +25°C° 0 mm 1 mps 752 mmHg 97%
    04:00 +25°C° 0 mm 1 mps 753 mmHg 97%
    05:00 +25°C° 0 mm 1 mps 753 mmHg 97%
    06:00 +25°C° 0 mm 1 mps 753 mmHg 97%
    07:00 +26°C° 0.1 mm 1 mps 754 mmHg 93%
    08:00 +27°C° 0.1 mm 1 mps 754 mmHg 89%
    09:00 +28°C° 0.1 mm 2 mps 755 mmHg 85%
    10:00 +29°C° 0.4 mm 2 mps 754 mmHg 82%
    11:00 +30°C° 0.4 mm 2 mps 753 mmHg 79%
    12:00 +31°C° 0.4 mm 2 mps 753 mmHg 76%
    13:00 +30°C° 0.4 mm 2 mps 752 mmHg 77%
    14:00 +30°C° 0.4 mm 2 mps 752 mmHg 79%
    15:00 +30°C° 0.4 mm 2 mps 751 mmHg 81%
    16:00 +29°C° 0.6 mm 2 mps 752 mmHg 85%
    17:00 +28°C° 0.6 mm 1 mps 752 mmHg 88%
    18:00 +27°C° 0.6 mm 1 mps 753 mmHg 92%
    19:00 +26°C° 0.1 mm 1 mps 753 mmHg 93%
    20:00 +26°C° 0.1 mm 1 mps 754 mmHg 94%
    21:00 +26°C° 0.1 mm 1 mps 754 mmHg 95%
    22:00 +26°C° 0.2 mm 1 mps 754 mmHg 95%
    23:00 +26°C° 0.2 mm 1 mps 754 mmHg 95%
    Show more